Flag for Azerbaijan Weather past 2 weeks in Ganja, Azerbaijan

Now
36 °F

Passing clouds.


Feels Like: 31 °F
Forecast: 29 / 51 °F
Wind: 6 mph from Southwest

Location: Gyanca Airport

Current Time: Dec 26, 2014 at 8:39:50 AM

Latest Report: Dec 26, 2014 at 8:00 AM


Visibility: N/A

Pressure: 30.12 "Hg

Humidity: 65%

Dew point: 25 °F

Location of GanjaLocation

Historic Weather in Ganja — Graph

°F

Ganja temperature yesterday

Maximum temperature yesterday: 59 °F (at 12:30 PM)
Minimum temperature yesterday: 43 °F (at 6:00 AM)
Average temperature yesterday: 49 °F

Past Weeks' High & Low Weather Summary

 TemperatureHumidityPressure
High61 °F (Dec 11, 1:30 PM)100% (Dec 11, 8:00 PM)30.42 "Hg (Dec 11, 8:00 PM)
Low32 °F (Dec 21, 7:00 AM)38% (Dec 22, 3:30 PM)29.83 "Hg (Dec 22, 2:30 PM)
Average43 °F81%30.17 "Hg
* Reported Dec 11 8:00 AM — Dec 26 8:00 AM, Ganja, Weather by CustomWeather, © 2014

Note: Actual official high and low records may vary slightly from our data, if they occured in-between our weather recording intervals... More about our weather records

Advertising

Ganja weather history for previous 24 hours

 ConditionsComfort  
Time TempWeatherWind HumidityBarometerVisibility
8:00 AM
Dec 26
36 °FPassing clouds.6 mph65%30.12 "HgN/A
6:30 AM37 °FPassing clouds.8 mph60%30.12 "HgN/A
6:00 AM36 °FPassing clouds.7 mph65%30.12 "HgN/A
5:30 AM39 °FPassing clouds.8 mph56%30.12 "HgN/A
5:00 AM41 °FPassing clouds.9 mph53%30.15 "HgN/A
4:30 AM41 °FPassing clouds.9 mph53%30.15 "HgN/A
4:00 AM41 °FPassing clouds.10 mph53%30.15 "HgN/A
3:30 AM43 °FPassing clouds.9 mph49%30.15 "HgN/A
3:00 AM41 °FPassing clouds.10 mph57%30.15 "HgN/A
2:30 AM41 °FPassing clouds.12 mph61%30.15 "HgN/A
2:00 AM41 °FPassing clouds.10 mph61%30.15 "HgN/A
1:30 AM41 °FPassing clouds.10 mph57%30.15 "HgN/A
1:00 AM43 °FPassing clouds.12 mph57%30.15 "HgN/A
12:30 AM43 °FPassing clouds.10 mph57%30.18 "HgN/A
12:00 AM43 °FPassing clouds.9 mph61%30.18 "HgN/A
6:00 PM
Dec 25
50 °FPassing clouds.8 mph62%30.18 "HgN/A
5:30 PM50 °FPassing clouds.7 mph62%30.18 "HgN/A
5:00 PM55 °FPassing clouds.3 mph51%30.18 "HgN/A
4:30 PM57 °FPassing clouds.6 mph44%30.18 "HgN/A
4:00 PM57 °FPassing clouds.5 mph41%30.18 "HgN/A
3:30 PM57 °FPassing clouds.5 mph41%30.18 "HgN/A
3:00 PM57 °FPassing clouds.2 mph41%30.18 "HgN/A
2:30 PM57 °FPassing clouds.3 mph41%30.18 "HgN/A
2:00 PM57 °FPassing clouds.1 mph41%30.21 "HgN/A
1:30 PM57 °FPassing clouds.1 mph41%30.21 "HgN/A
1:00 PM55 °FPassing clouds.3 mph44%30.21 "HgN/A
12:30 PM59 °FPassing clouds.3 mph42%30.24 "HgN/A
12:00 PM55 °FPassing clouds.5 mph44%30.24 "HgN/A
11:30 AM55 °FPassing clouds.5 mph44%30.24 "HgN/A
11:00 AM54 °FPassing clouds.6 mph47%30.24 "HgN/A
10:30 AM52 °FPassing clouds.6 mph54%30.24 "HgN/A
10:00 AM48 °FPassing clouds.6 mph62%30.24 "HgN/A
9:30 AM45 °FScattered clouds.8 mph66%30.24 "HgN/A
9:00 AM43 °FPassing clouds.10 mph71%30.24 "HgN/A
8:30 AM43 °FPassing clouds.9 mph71%30.21 "HgN/A
Weather by CustomWeather, © 2014

See weather overviewHow to use our weather pages